Weather History for Glendive, MT

Change the Weather History Date:

Tuesday, February 19, 2013

  Actual Average Record
Temperature  
Mean Temperature 16 °F -  
Max Temperature 19 °F 31 °F 46 °F (2002)
Min Temperature 12 °F 13 °F -2 °F (2011)
Degree Days  
Heating Degree Days 50    
Moisture  
Dew Point 1 °F    
Average Humidity 52    
Maximum Humidity 62    
Minimum Humidity 45    
Precipitation  
Precipitation 0.00 in - - ()
Sea Level Pressure  
Sea Level Pressure 30.03 in    
Wind  
Wind Speed 17 mph (ESE)    
Max Wind Speed 25 mph    
Max Gust Speed 29 mph    
Visibility 10 miles    
Events      
Averages and records for this station are not official NWS values.
T = Trace of Precipitation, MM = Missing Value Source: NWS Daily Summary

Daily Weather History Graph

Daily Weather History Graph

Search for Another Location

Airport:

Trip Planner

Search our weather history database for the weather conditions in past years. The results will help you decide how hot, cold, wet, or windy it might be!

Date:

Astronomy

Feb. 19, 2013 Rise Set
Actual Time 6:56 AM MST 5:30 PM MST
Civil Twilight 6:25 AM MST 6:01 PM MST
Nautical Twilight 5:50 AM MST 6:36 PM MST
Astronomical Twilight 5:14 AM MST 7:12 PM MST
Moon 11:51 AM MST (2/19) 2:42 AM MST (2/19)
Length of Visible Light 11h 35m
Length of Day
10h 33m
Waxing Gibbous, 68% of the Moon is Illuminated
Feb 19
Waxing Gibbous
Feb 25
Full
Mar 4
Last Quarter
Mar 11
New
Mar 19
First Quarter

Hourly Weather History & Observations

Time (MST) Temp. Windchill Dew Point Humidity Pressure Visibility Wind Dir Wind Speed Gust Speed Precip Events Conditions
11:15 AM 14.0 °F -2.0 °F 3.2 °F 62% 30.12 in 10.0 mi East 16.1 mph - N/A   Clear
11:35 AM 15.8 °F -0.2 °F 3.2 °F 58% 30.12 in 10.0 mi ESE 17.3 mph - N/A   Clear
11:55 AM 15.8 °F 0.9 °F 3.2 °F 58% 30.11 in 10.0 mi ESE 15.0 mph - N/A   Clear
12:15 PM 17.6 °F 1.7 °F 5.0 °F 58% 30.11 in 10.0 mi ESE 18.4 mph 21.9 mph N/A   Clear
12:35 PM 17.6 °F 3.2 °F 5.0 °F 58% 30.10 in 10.0 mi ESE 15.0 mph 20.7 mph N/A   Clear
12:55 PM 17.6 °F 2.7 °F 3.2 °F 53% 30.08 in 10.0 mi East 16.1 mph - N/A   Clear
1:15 PM 19.4 °F 4.5 °F 5.0 °F 54% 30.07 in 10.0 mi ESE 17.3 mph 26.5 mph N/A   Clear
1:35 PM 19.4 °F 4.5 °F 5.0 °F 54% 30.07 in 10.0 mi ESE 17.3 mph - N/A   Clear
1:55 PM 19.4 °F 5.5 °F 3.2 °F 49% 30.07 in 10.0 mi ESE 15.0 mph - N/A   Clear
2:15 PM 19.4 °F 4.5 °F 5.0 °F 54% 30.06 in 10.0 mi ESE 17.3 mph 21.9 mph N/A   Clear
2:35 PM 19.4 °F 3.6 °F 3.2 °F 49% 30.05 in 10.0 mi ESE 19.6 mph - N/A   Clear
2:55 PM 19.4 °F 3.6 °F 3.2 °F 49% 30.05 in 10.0 mi ESE 19.6 mph 24.2 mph N/A   Clear
3:35 PM 19.4 °F 3.2 °F 3.2 °F 49% 30.03 in 10.0 mi ESE 20.7 mph 24.2 mph N/A   Clear
3:55 PM 19.4 °F 1.8 °F 1.4 °F 46% 30.01 in 10.0 mi ESE 25.3 mph 28.8 mph N/A   Clear
4:15 PM 19.4 °F 2.8 °F 1.4 °F 46% 30.02 in 10.0 mi ESE 21.9 mph 28.8 mph N/A   Clear
5:35 PM 17.6 °F 0.5 °F -0.4 °F 45% 30.01 in 10.0 mi ESE 21.9 mph 25.3 mph N/A   Clear
6:15 PM 17.6 °F 3.7 °F -0.4 °F 45% 30.03 in 10.0 mi East 13.8 mph - N/A   Clear
6:35 PM 15.8 °F 2.7 °F -0.4 °F 49% 30.03 in 10.0 mi ESE 11.5 mph - N/A   Clear
6:55 PM 15.8 °F -0.6 °F -0.4 °F 49% 30.01 in 10.0 mi ESE 18.4 mph 21.9 mph N/A   Clear
7:15 PM 15.8 °F 0.3 °F -2.2 °F 45% 30.01 in 10.0 mi ESE 16.1 mph - N/A   Clear
7:35 PM 15.8 °F 2.1 °F -0.4 °F 49% 30.01 in 10.0 mi ESE 12.7 mph - N/A   Clear
7:55 PM 15.8 °F -0.2 °F -2.2 °F 45% 30.01 in 10.0 mi ESE 17.3 mph - N/A   Clear
8:15 PM 14.0 °F -0.2 °F -0.4 °F 53% 30.00 in 10.0 mi ESE 12.7 mph 18.4 mph N/A   Partly Cloudy
8:35 PM 14.0 °F -1.4 °F -0.4 °F 53% 30.00 in 10.0 mi ESE 15.0 mph 20.7 mph N/A   Partly Cloudy
9:15 PM 14.0 °F -2.5 °F -0.4 °F 53% 30.00 in 10.0 mi ESE 17.3 mph 20.7 mph N/A   Partly Cloudy
9:35 PM 14.0 °F -2.0 °F -0.4 °F 53% 29.99 in 10.0 mi ESE 16.1 mph 20.7 mph N/A   Mostly Cloudy
9:55 PM 14.0 °F -3.0 °F -0.4 °F 53% 29.99 in 10.0 mi ESE 18.4 mph - N/A   Mostly Cloudy
10:15 PM 14.0 °F -1.4 °F -0.4 °F 53% 29.99 in 10.0 mi SE 15.0 mph - N/A   Clear
10:35 PM 12.2 °F -4.3 °F -2.2 °F 53% 30.00 in 10.0 mi ESE 16.1 mph - N/A   Clear
10:55 PM 12.2 °F -4.3 °F -0.4 °F 57% 29.99 in 10.0 mi ESE 16.1 mph - N/A   Clear
11:15 PM 12.2 °F -4.8 °F -0.4 °F 57% 29.99 in 10.0 mi ESE 17.3 mph - N/A   Clear
11:35 PM 12.2 °F -4.3 °F -0.4 °F 57% 29.98 in 10.0 mi ESE 16.1 mph 19.6 mph N/A   Clear
11:55 PM 12.2 °F -4.8 °F -0.4 °F 57% 29.98 in 10.0 mi ESE 17.3 mph - N/A   Clear